STARLINK-6215, 57367

Orbit data source: Space-Track

STARLINK-6215, 57367 is a payload satellite owned by SpaceX/Seattle (US) in LEO that was launched on Sun, 16 Jul 2023 UTC via an FALCON 9 launch vehicle from the Air Force Eastern Test Range (AFETR). Payload-class satellites include a variety of spacecraft equipped with specific instruments for various scientific and technological missions. These include communications satellites like Starlink; space stations such as the ISS; scientific satellites like the Hubble; Earth observation satellites from companies like Planet Labs, Umbra, and HawkEye 360; GPS; miniature CubeSats for education and research; and military/defense satellites.

Loading next visibility...
Identifier
57367, 2023-099AR
Orbit
LEO
Country
Flag of USUS
Related business
Manufacturer
SpaceX/Seattle
Mission
Operational Commercial Communications
Bus & Motor
STARLINK, Unknown motor
Mass
305 kg wet, ~290 kg dry
Launch date (UTC)
2023-07-16 (3 years ago)
Launch vehicle
FALCON 9
Launch site
Air Force Eastern Test Range (AFETR)
Object type
Payload
Rocket body
Debris
Shape & HBR
Box + 1 Pan, 10.1 m
Radar Cross Section
11.087 m², Large (>1 m²)

Expand to show TLE details & history
Last TLE update: 3 days ago

TLE from 3 days ago
0 STARLINK-6215
1 57367U 23099AR  26170.55503501 -.00000186  00000-0  27430-5 0  9998
2 57367  43.0039   7.7995 0000735 262.2782  97.7987 15.27580505162745
Epoch: 2026-06-19T13:19Z
TLE epoch observation values (Epoch: 2026-06-19T13:19:15.024Z)
Latitude
0.00002°
Longitude
-99.79541°
Altitude
482.892 km
Speed
7.626 km/s
True Right ascension
00h 31m 11s
True Declination
0° 00' 00"
Sunlit
Object was in daylight at epoch
Visualization orbit readout
Latitude
Unknown
Longitude
Unknown
Altitude
Unknown
Speed
Unknown
Apparent Right ascension
Unknown
Apparent Declination
Unknown
Sunlit
N/A
Visualization observer readout
Local Sidereal Time
21:24:57
Azimuth
Unknown
Elevation
Unknown
Doppler factor
Unknown
Orbital elements
Apogee altitude
485.497 km
Perigee altitude
484.488 km
Semi-major axis
6,863.129 km
Eccentricity
0.00007
Inclination
43.0039°
RAAN
7.7995°
Arg. of periapsis
262.2782°
True anomaly
97.80704°
Mean anomaly
97.7987°
Eccentric anomaly
97.80287°
Mean motion
3.81733 °/min
Orbital period
94.31 mins
BSTAR
0.000002743
Loading maneuver chart data...
Computing Atmospheric mass density...
Loading historical data...
Loading historical data...
Loading historical data...
Loading historical data...
Loading historical data...
Loading historical data...
Loading historical data...

Documentation

Showing up to 5 results
|